Home   Weather   San José de Mayo   Past weeks
Flag for Uruguay

Past Weather in San José de Mayo, Uruguay — Yesterday and Last 2 Weeks

Now
61 °F

Passing clouds.


Feels Like: 61 °F
Forecast: 66 / 50 °F
Wind: 10 mph from South

Location: Carrasco

Current Time: Mar 21, 2019 at 5:09:31 am

Latest Report: Mar 21, 2019 at 4:00 am


Visibility: N/A

Pressure: 30.15 "Hg

Humidity: 63%

Dew Point: 48 °F

Location of San José de MayoLocation

Past Weather in San José de Mayo — Graph

°F

San José de Mayo Temperature Yesterday

Maximum temperature yesterday: 66 °F (at 11:00 am)
Minimum temperature yesterday: 57 °F (at 7:00 pm)
Average temperature yesterday: 62 °F

High & Low Weather Summary for the Past Weeks

 TemperatureHumidityPressure
High91 °F (Mar 7, 2:00 pm)100% (Mar 6, 8:00 am)30.33 "Hg (Mar 6, 8:00 am)
Low54 °F (Mar 11, 7:00 am)43% (Mar 19, 1:00 pm)29.65 "Hg (Mar 7, 4:35 pm)
Average69 °F76%29.97 "Hg
* Reported Mar 6 4:00 am — Mar 21 4:00 am, San José de Mayo. Weather by CustomWeather, © 2019

Note: Actual official high and low records may vary slightly from our data, if they occured in-between our weather recording intervals... More about our weather records

Advertising

San José de Mayo Weather History for the Previous 24 Hours

Scroll right to see more
 ConditionsComfort  
Time TempWeatherWind HumidityBarometerVisibility
4:00 am
Thu, Mar 21
61 °FPassing clouds.10 mph63%30.15 "HgN/A
3:00 am61 °FPassing clouds.9 mph63%30.15 "HgN/A
2:00 am59 °FPassing clouds.9 mph59%30.18 "HgN/A
1:00 am59 °FPassing clouds.5 mph63%30.18 "HgN/A
12:00 am59 °FPassing clouds.10 mph59%30.18 "HgN/A
11:00 pm
Wed, Mar 20
59 °FPassing clouds.8 mph59%30.18 "HgN/A
10:00 pm59 °FPassing clouds.15 mph68%30.18 "HgN/A
9:00 pm59 °FPassing clouds.9 mph68%30.18 "HgN/A
8:00 pm57 °FPartly cloudy.7 mph82%30.18 "HgN/A
7:00 pm57 °FLight rain. Passing clouds.6 mph82%30.18 "Hg5 mi
6:21 pm61 °FRain. Broken clouds.9 mph63%30.15 "Hg3 mi
6:00 pm61 °FDrizzle. Broken clouds.17 mph63%30.15 "HgN/A
5:00 pm64 °FScattered clouds.12 mph49%30.15 "HgN/A
4:00 pm64 °FScattered clouds.14 mph49%30.15 "HgN/A
3:00 pm64 °FScattered clouds.14 mph49%30.15 "HgN/A
2:00 pm64 °FScattered clouds.14 mph52%30.15 "HgN/A
1:00 pm66 °FScattered clouds.14 mph49%30.15 "HgN/A
12:00 pm66 °FScattered clouds.14 mph52%30.15 "HgN/A
11:00 am66 °FScattered clouds.13 mph46%30.15 "HgN/A
10:00 am64 °FScattered clouds.13 mph52%30.15 "HgN/A
9:00 am64 °FScattered clouds.12 mph52%30.15 "HgN/A
8:00 am63 °FScattered clouds.10 mph59%30.15 "HgN/A
7:00 am61 °FScattered clouds.8 mph59%30.12 "HgN/A
6:00 am61 °FPassing clouds.9 mph63%30.12 "HgN/A
5:00 am61 °FPassing clouds.8 mph63%30.12 "HgN/A
Weather by CustomWeather, © 2019

See weather overview